Location: Amsterdam
(30.7274°N, 84.4357°W)
Time: 20:55:16
(UTC+00:00)

Tiros 1 despin weight - Pass Details

Date: 21 February 2026
Orbit: 556 x 593 km, 48.2° (Epoch: 3 March)

Event Time Altitude Azimuth Distance (km) Brightness Sun altitude
Rises 23:43:03 0° 324° (NW) 2,732 ? -3.5°
Reaches altitude 10° 23:46:26 10° 353° (N) 1,835 ? -4.2°
Maximum altitude 23:48:27 13° 22° (NNE) 1,642 ? -4.6°
Drops below altitude 10° 23:50:28 10° 51° (NE) 1,836 ? -5.1°
Enters shadow 23:52:00 - 67° (ENE) 2,188 ? -5.4°
Sets 23:53:50 0° 79° (E) 2,734 - -5.8°
